Wind_Speed
40 40 41 43 43 44 45 44 45 45 44 44 42 40 40 39 37 35 35 34 34 34 33 33 33 34 33 34 34 34 33 32 35 37 39 42 44 40 38 31 27 26 29
41 42 43 44 45 46 46 46 46 46 46 45 44 43 41 39 38 36 36 36 36 36 35 36 36 36 35 36 35 35 34 33 34 35 37 43 46 43 43 39 28 30 26
43 43 44 45 47 48 49 49 50 49 48 47 45 43 41 39 37 36 36 37 38 39 38 37 38 37 36 36 35 35 35 34 35 36 39 43 40 39 42 40 41 40 36
45 46 47 48 48 48 47 45 44 42 41 40 39 38 37 37 37 37 38 39 40 39 39 38 37 37 35 34 33 32 32 32 34 36 40 40 39 38 38 40 40 41 40
46 44 42 40 41 43 44 44 44 44 43 41 39 37 36 37 37 38 39 39 39 39 38 37 37 35 34 32 31 31 30 31 33 35 37 38 39 41 39 39 39 39 39
38 38 39 39 41 41 41 41 40 39 39 40 39 37 36 37 37 38 38 38 37 37 36 36 36 34 33 33 33 32 30 31 34 34 34 36 39 34 41 40 40 39 37
36 38 40 43 42 42 39 39 38 38 37 37 38 37 37 36 37 37 37 37 37 37 36 36 35 35 35 35 35 34 34 34 36 37 35 34 35 32 35 35 38 39 39
39 41 43 45 44 44 41 38 37 37 37 37 37 37 36 37 37 38 37 36 37 37 37 36 36 37 37 37 37 36 35 35 35 36 35 36 35 32 31 31 32 34 37
42 43 44 45 43 41 38 37 36 36 37 36 37 37 38 38 38 38 38 37 37 37 37 37 38 38 39 39 39 38 36 35 34 34 32 33 34 34 34 32 30 29 30
42 43 43 42 41 39 37 36 36 36 36 37 37 38 38 38 39 39 39 40 39 39 39 39 40 40 40 40 40 39 38 37 35 35 33 30 24 30 31 32 32 31 29
43 43 43 42 39 38 37 36 36 36 36 37 38 37 38 38 38 40 40 41 41 41 42 42 43 43 42 43 41 40 41 39 37 37 37 33 31 31 29 28 31 32 32
43 44 42 40 39 38 38 38 37 37 37 38 38 38 39 40 41 43 42 42 42 42 43 43 44 46 46 45 44 44 45 44 42 40 39 38 36 35 32 31 32 33 33
43 44 40 38 38 38 38 38 38 38 38 38 38 41 42 43 43 43 43 43 43 44 46 46 47 47 48 48 47 47 47 48 48 46 45 43 43 40 37 35 34 35 35
43 41 39 38 38 38 37 36 36 37 38 38 40 41 43 44 45 46 46 46 46 47 47 48 48 49 49 51 50 50 49 50 51 50 49 48 46 44 44 43 41 40 39
43 40 39 38 38 36 35 35 36 37 38 40 41 43 44 45 46 46 47 48 48 47 48 50 51 53 53 52 53 54 55 53 53 53 54 54 54 54 53 51 48 46 46
43 39 38 37 36 35 35 36 37 38 40 41 43 45 46 46 46 47 47 47 48 49 52 53 53 54 54 55 56 56 57 58 59 60 62 62 61 60 59 57 54 51 50
40 38 37 36 35 35 36 37 38 39 41 43 45 46 47 48 48 48 48 47 47 49 50 52 53 54 54 55 56 57 58 58 57 56 56 57 58 59 60 61 60 56 55
38 38 36 34 35 35 37 37 39 41 43 45 47 48 49 48 46 45 44 44 46 48 50 51 52 53 54 54 54 56 56 56 57 57 57 57 57 57 57 60 61 60 58
37 36 32 33 34 36 36 38 40 43 45 47 48 49 47 45 43 43 44 45 46 49 51 52 54 55 56 57 58 59 60 61 62 64 64 64 63 61 59 61 61 62 62
36 32 30 32 34 36 37 40 42 44 46 48 47 45 43 42 43 45 46 48 50 51 54 56 58 60 61 60 60 60 62 63 64 65 66 67 67 67 64 63 65 65 65
32 29 29 31 34 36 38 41 44 46 48 47 44 42 42 44 45 48 50 51 54 56 57 57 57 56 56 57 56 56 55 56 55 55 57 60 64 67 68 68 70 70 70
28 27 28 32 34 37 40 42 44 46 46 43 42 42 44 46 48 50 52 54 54 55 56 57 57 57 56 54 51 49 47 48 51 53 54 57 58 63 67 71 74 78 75
24 26 29 32 34 38 40 43 44 44 41 42 43 45 47 48 51 53 53 54 55 56 57 57 54 49 44 44 43 40 40 44 44 42 44 45 48 52 55 67 74 79 82
22 27 30 32 35 37 41 43 41 40 40 42 44 46 48 51 53 54 54 56 57 56 51 44 40 39 35 35 37 37 38 41 43 45 46 45 44 44 45 52 68 80 87
23 27 29 32 35 39 40 39 39 39 42 44 45 47 50 52 53 53 55 56 48 41 39 36 37 40 42 41 40 38 36 38 43 44 46 48 53 53 52 51 59 78 89
23 26 29 33 37 38 37 36 38 41 42 44 45 48 51 51 52 54 50 40 38 36 39 39 36 32 33 34 34 34 34 34 37 37 37 38 41 47 57 58 59 68 87
Wind_Direction
299 299 299 299 299 299 298 298 298 298 297 295 294 294 293 291 288 287 284 283 280 279 277 276 275 271 265 263 259 257 254 251 249 246 245 245 243 242 241 241 237 252 246
297 298 299 299 299 299 299 298 297 298 297 298 297 296 292 289 287 285 282 281 279 277 275 274 272 270 265 261 258 256 255 253 251 248 246 243 242 244 246 243 235 237 243
296 298 299 299 299 298 298 298 298 298 298 296 293 291 288 285 280 280 279 279 278 278 276 275 273 271 266 262 258 256 254 252 251 249 248 247 247 248 250 251 248 247 247
299 300 300 300 300 300 300 299 299 298 298 295 293 288 284 281 278 278 278 278 277 276 276 276 275 272 268 262 259 255 254 254 252 250 250 252 250 247 248 247 248 248 247
299 301 301 303 303 303 301 299 298 297 295 293 290 287 284 282 281 281 281 281 281 281 279 276 273 270 266 262 259 259 255 255 254 252 251 252 251 247 248 245 244 246 245
301 303 305 306 305 303 302 300 298 296 295 292 290 286 283 282 282 283 283 282 281 278 277 275 273 268 264 264 264 262 261 258 257 252 251 249 248 249 247 247 246 245 244
304 304 305 305 306 306 305 303 300 299 296 292 289 286 286 285 285 285 284 283 282 280 278 274 269 266 265 265 265 266 266 263 260 255 251 248 247 243 241 243 243 244 244
306 306 306 306 307 308 308 306 303 299 297 293 291 289 288 288 286 286 284 283 282 280 277 272 269 267 265 266 267 267 265 263 262 259 253 248 245 242 239 238 237 238 240
305 305 306 306 306 306 305 304 300 297 294 293 293 292 292 290 289 288 288 285 283 280 275 270 269 268 268 268 269 268 263 261 260 258 254 249 245 245 244 241 240 237 237
306 306 307 306 305 305 303 300 297 296 295 293 291 291 292 291 292 291 289 286 283 279 274 271 268 266 266 265 265 267 264 262 259 255 251 247 244 245 242 242 242 240 236
305 305 307 307 306 305 302 299 297 294 292 290 292 293 293 291 290 288 286 283 280 276 273 271 269 266 267 265 265 265 265 261 257 252 250 247 249 246 244 244 243 242 241
303 305 306 305 305 303 300 298 296 296 296 297 298 296 295 294 292 289 287 284 279 275 272 272 270 268 267 267 264 263 262 260 256 251 249 247 246 245 243 244 247 244 240
304 306 305 305 303 299 297 296 297 299 300 299 298 298 297 295 293 291 287 282 277 274 274 275 275 273 270 269 268 265 261 258 255 253 249 246 246 244 241 243 248 248 243
304 306 305 303 299 296 296 298 299 299 297 296 296 297 296 296 295 292 288 282 277 275 275 277 277 276 274 272 268 265 261 258 255 253 251 247 245 241 241 240 242 245 247
304 306 304 300 298 298 299 299 299 298 299 299 299 298 298 298 296 292 288 283 280 278 278 278 278 277 274 272 269 266 263 261 257 254 252 250 247 246 246 242 241 240 242
304 304 301 299 299 299 299 299 299 299 300 300 300 299 300 301 298 294 290 286 284 281 279 280 281 280 277 274 271 267 264 261 259 258 256 254 252 248 245 243 240 237 237
304 302 300 299 299 298 299 299 300 302 302 302 301 303 303 302 297 291 287 284 283 282 283 284 283 281 278 275 271 267 265 263 260 257 255 253 250 248 244 241 239 235 232
301 300 299 298 297 299 299 301 304 304 304 304 304 305 303 298 295 293 292 290 289 289 289 287 284 282 280 277 274 271 269 267 265 261 257 253 249 246 243 239 235 233 230
300 297 297 297 297 298 301 304 306 306 305 306 306 303 300 300 299 298 296 295 294 292 290 289 287 284 282 279 276 273 271 267 264 262 259 256 252 247 241 237 233 228 224
297 297 296 297 298 301 306 307 306 304 306 306 304 302 303 302 302 300 299 298 297 295 294 292 290 286 282 278 274 271 267 263 259 255 251 249 246 243 239 235 230 226 220
297 296 295 300 302 306 309 308 308 308 309 307 306 307 307 306 304 303 303 303 300 298 296 295 293 289 285 281 276 272 268 263 258 253 249 246 243 238 233 228 223 220 217
295 294 301 303 307 309 309 308 308 310 308 309 309 308 308 308 308 307 305 303 301 300 298 296 292 289 285 281 276 269 262 256 249 248 249 248 244 238 232 225 218 213 212
296 303 304 307 309 309 309 310 310 310 311 313 313 313 313 312 311 308 305 305 304 303 301 298 294 289 282 278 273 266 256 252 251 246 241 240 236 232 228 222 216 211 207
304 303 307 310 311 310 310 311 313 316 317 316 316 317 316 314 311 311 311 309 308 306 302 298 293 290 285 277 273 267 258 251 247 244 242 236 226 222 219 218 212 205 204
304 306 310 313 312 312 314 315 320 320 320 320 320 320 318 317 318 316 315 313 311 307 304 302 297 292 287 280 274 268 261 255 250 246 240 232 228 226 222 214 209 202 202
307 311 315 314 315 317 319 323 324 323 323 324 323 322 322 323 322 321 319 318 317 314 309 302 296 291 284 279 268 260 254 247 243 238 231 222 219 221 219 212 206 202 198
Height
5827 5824 5822 5820 5817 5814 5812 5809 5807 5804 5801 5799 5796 5794 5792 5790 5788 5786 5785 5784 5783 5782 5782 5781 5780 5780 5781 5780 5780 5780 5781 5783 5784 5785 5787 5787 5788 5790 5792 5796 5799 5801 5804
5821 5819 5816 5813 5811 5808 5805 5802 5799 5796 5794 5791 5789 5787 5785 5783 5781 5779 5778 5777 5776 5775 5774 5774 5773 5773 5773 5773 5774 5774 5775 5776 5777 5779 5781 5779 5780 5784 5786 5790 5794 5796 5799
5814 5812 5809 5806 5803 5800 5797 5794 5791 5788 5785 5783 5781 5778 5776 5775 5773 5771 5769 5768 5768 5767 5766 5766 5766 5766 5766 5765 5766 5767 5768 5768 5770 5771 5771 5770 5777 5781 5782 5785 5788 5790 5795
5808 5805 5802 5799 5795 5791 5788 5785 5783 5780 5778 5775 5773 5771 5769 5767 5765 5763 5762 5760 5759 5759 5759 5758 5758 5757 5758 5759 5759 5760 5761 5761 5762 5763 5763 5766 5770 5773 5775 5777 5780 5783 5788
5802 5799 5795 5792 5788 5784 5781 5778 5775 5772 5770 5767 5765 5762 5760 5758 5756 5755 5754 5753 5752 5750 5750 5750 5750 5750 5750 5751 5752 5753 5754 5755 5755 5755 5757 5760 5762 5764 5768 5770 5772 5776 5782
5795 5792 5789 5785 5782 5778 5774 5771 5768 5764 5762 5759 5756 5754 5753 5751 5749 5747 5746 5745 5744 5743 5742 5741 5741 5742 5742 5743 5744 5746 5747 5749 5748 5749 5751 5752 5753 5760 5759 5763 5766 5769 5773
5789 5786 5782 5778 5774 5771 5766 5763 5760 5756 5753 5751 5748 5746 5744 5742 5740 5739 5737 5736 5735 5734 5734 5733 5734 5734 5734 5735 5737 5738 5739 5741 5741 5742 5745 5746 5748 5753 5754 5756 5759 5762 5766
5783 5779 5775 5771 5767 5763 5759 5755 5751 5748 5746 5743 5741 5738 5736 5734 5732 5730 5729 5727 5726 5725 5724 5724 5725 5726 5726 5727 5729 5730 5731 5732 5733 5735 5737 5739 5741 5745 5748 5750 5754 5756 5759
5776 5772 5768 5764 5759 5755 5751 5747 5744 5741 5738 5735 5732 5729 5727 5725 5723 5722 5720 5718 5717 5716 5715 5716 5716 5717 5718 5719 5719 5721 5723 5724 5725 5727 5729 5732 5734 5738 5740 5744 5748 5751 5754
5769 5765 5761 5756 5752 5747 5743 5740 5736 5732 5729 5727 5725 5722 5719 5717 5714 5712 5711 5709 5707 5706 5706 5706 5707 5708 5708 5710 5711 5711 5713 5715 5717 5719 5722 5724 5730 5732 5734 5738 5741 5745 5749
5762 5757 5753 5748 5744 5740 5736 5732 5729 5725 5723 5720 5717 5714 5711 5709 5706 5704 5702 5699 5698 5697 5696 5697 5697 5697 5698 5699 5701 5702 5702 5705 5708 5711 5713 5718 5722 5725 5728 5732 5735 5739 5743
5755 5750 5745 5741 5737 5733 5728 5725 5722 5719 5715 5712 5708 5705 5702 5699 5696 5694 5691 5689 5687 5686 5686 5686 5686 5686 5687 5688 5689 5691 5692 5694 5697 5701 5704 5710 5713 5717 5722 5725 5728 5732 5737
5748 5743 5739 5735 5730 5726 5722 5718 5714 5710 5706 5703 5699 5695 5692 5689 5686 5683 5680 5678 5676 5676 5674 5673 5673 5674 5674 5675 5676 5678 5680 5682 5685 5689 5694 5699 5704 5709 5714 5718 5721 5725 5730
5741 5737 5732 5728 5723 5719 5715 5711 5707 5703 5699 5696 5692 5688 5684 5680 5676 5672 5669 5666 5665 5663 5663 5661 5660 5660 5660 5660 5662 5664 5666 5669 5673 5676 5680 5687 5692 5699 5704 5710 5715 5719 5723
5733 5730 5725 5720 5716 5712 5707 5703 5699 5695 5691 5687 5683 5679 5674 5670 5665 5661 5658 5655 5653 5651 5649 5648 5646 5645 5645 5645 5646 5648 5651 5654 5657 5661 5666 5672 5678 5685 5691 5699 5706 5711 5715
5726 5722 5718 5713 5708 5704 5700 5696 5692 5688 5683 5679 5674 5669 5665 5660 5654 5650 5646 5643 5640 5638 5636 5634 5632 5630 5629 5629 5629 5630 5632 5636 5639 5643 5648 5654 5660 5668 5675 5684 5693 5701 5707
5719 5715 5710 5705 5701 5697 5693 5689 5685 5680 5675 5670 5664 5660 5654 5648 5643 5638 5634 5630 5627 5624 5620 5617 5615 5613 5611 5611 5611 5612 5613 5615 5619 5623 5628 5634 5642 5648 5657 5666 5677 5687 5697
5712 5707 5702 5698 5694 5690 5686 5682 5677 5672 5666 5661 5655 5649 5643 5637 5631 5626 5621 5617 5613 5608 5605 5601 5598 5596 5594 5593 5593 5592 5594 5596 5599 5603 5609 5616 5624 5631 5640 5648 5660 5672 5684
5706 5701 5696 5692 5688 5684 5680 5675 5670 5664 5658 5651 5645 5638 5631 5625 5620 5614 5609 5604 5598 5593 5589 5585 5581 5578 5575 5572 5571 5570 5571 5573 5577 5581 5587 5594 5602 5612 5622 5632 5643 5656 5668
5699 5695 5691 5687 5682 5678 5673 5667 5662 5656 5650 5642 5635 5628 5621 5614 5608 5602 5596 5590 5584 5577 5571 5565 5560 5555 5552 5550 5549 5547 5547 5549 5551 5556 5562 5569 5578 5588 5600 5612 5626 5640 5653
5694 5690 5685 5681 5677 5672 5666 5660 5654 5647 5639 5632 5625 5618 5610 5603 5596 5589 5582 5574 5566 5559 5552 5546 5540 5534 5529 5526 5526 5525 5524 5524 5528 5533 5537 5544 5552 5563 5575 5590 5605 5621 5637
5689 5684 5680 5676 5672 5666 5660 5654 5646 5639 5631 5623 5615 5608 5601 5593 5585 5576 5568 5560 5551 5543 5534 5526 5520 5514 5508 5504 5503 5503 5504 5502 5505 5511 5517 5522 5530 5538 5551 5566 5582 5601 5620
5683 5680 5676 5672 5667 5661 5654 5646 5638 5631 5622 5614 5606 5598 5589 5581 5572 5564 5554 5545 5535 5525 5515 5506 5499 5493 5490 5485 5484 5485 5487 5486 5491 5494 5498 5504 5511 5517 5527 5541 5562 5581 5600
5680 5676 5672 5667 5662 5656 5648 5639 5632 5622 5614 5606 5598 5589 5579 5570 5561 5550 5539 5528 5517 5507 5497 5489 5483 5478 5474 5471 5469 5469 5471 5471 5474 5478 5483 5489 5497 5505 5514 5524 5539 5560 5580
5677 5673 5668 5663 5656 5649 5641 5632 5624 5615 5607 5598 5589 5580 5570 5559 5548 5536 5524 5513 5502 5492 5484 5477 5471 5465 5459 5455 5451 5450 5452 5453 5454 5458 5465 5473 5481 5490 5500 5511 5523 5541 5562
5674 5670 5665 5658 5652 5644 5635 5626 5618 5609 5600 5592 5582 5572 5560 5548 5536 5524 5512 5501 5491 5483 5474 5465 5457 5450 5444 5440 5436 5435 5435 5437 5438 5442 5448 5456 5464 5473 5483 5497 5512 5528 5548